Regional Weather Roundup
Issued by NWS Charleston, WV

Home | Current Version | Previous Version | Graphics & Text | Print | Product List | Glossary On
Versions: 1 2 3 4 5 6 7 8 9 10 11 12 13 14 15 16 17 18 19 20 21 22 23 24 25 26 27 28 29 30 31 32 33 34 35 36 37 38 39 40 41 42 43 44 45 46 47 48 49 50
095
ASUS41 KRLX 192010
RWRRLX
West Virginia Regional Weather Roundup
National Weather Service Charleston WV
400 PM EDT THU OCT 19 2017

Note: "fair" indicates few or no clouds below 12,000 feet with no
significant weather and/or obstructions to visibility.

WVZ003-192100-
Northern Panhandle of West Virginia

CITY           SKY/WX    TMP DP  RH WIND       PRES   REMARKS
WHEELING         N/A     69  45  41 SW10G20   30.18S
$$

WVZ009-192100-
Northwest West Virginia

CITY           SKY/WX    TMP DP  RH WIND       PRES   REMARKS
PARKERSBURG      N/A     71  44  37 W9        30.23F
$$

WVZ006-192100-
Western West Virginia

CITY           SKY/WX    TMP DP  RH WIND       PRES   REMARKS
HUNTINGTON       N/A     71  45  39 SW9       30.23S
$$

WVZ015-192100-
West Central West Virginia

CITY           SKY/WX    TMP DP  RH WIND       PRES   REMARKS
CHARLESTON       N/A     73  44  35 VRB6      30.23S
$$

WVZ022-031-192100-
North Central West Virginia

CITY           SKY/WX    TMP DP  RH WIND       PRES   REMARKS
CLARKSBURG       N/A     71  43  36 S10       30.21S
MORGANTOWN       N/A     70  42  36 S8        30.20F
$$

WVZ025-035-042-045-192100-
Southern West Virginia

CITY           SKY/WX    TMP DP  RH WIND       PRES   REMARKS
BECKLEY          N/A     68  35  29 W8        30.27F
LOGAN            N/A     68  45  42 CALM      30.25S
BLUEFIELD        N/A     66  34  30 W8        30.29S
LEWISBURG        N/A     69  41  36 SW6       30.26S
$$

WVZ047-192100-
Northern Mountains of West Virginia

CITY           SKY/WX    TMP DP  RH WIND       PRES   REMARKS
ELKINS           N/A     70  36  28 W8        30.23S
$$

WVZ052-192100-
Eastern Panhandle of West Virginia

CITY           SKY/WX    TMP DP  RH WIND       PRES   REMARKS
MARTINSBURG      N/A     73  44  35 S8        30.14F
PETERSBURG       N/A     77  39  25 W5        30.15F
$$




USA.gov is the U.S. government's official web portal to all federal, state and local government web resources and services.